Theta_e
322 319 322 319 307 309 302 304 309 309 311 314 318 316 315 317 311 307 334 338 340 341 342 341 345 344 344 344 344 344 344 342 343 346 346 347 346 345 346 346 347 345 342 340 340 339 338 338 337
319 317 321 315 303 300 302 306 306 311 313 316 317 317 315 314 325 328 330 338 340 340 341 338 343 344 343 344 344 343 343 343 342 343 345 346 346 345 345 344 346 344 339 339 339 338 337 335 335
316 317 315 308 304 300 301 306 310 312 314 314 314 318 317 318 327 329 337 339 339 340 341 340 343 345 346 345 343 343 341 342 342 341 340 341 343 345 343 343 343 342 338 337 338 337 335 334 333
317 320 314 305 298 302 303 308 311 312 311 313 317 313 322 327 328 334 340 340 338 340 341 341 344 345 344 344 344 342 341 342 341 339 338 339 339 341 344 343 340 339 338 336 337 336 334 333 331
318 317 308 303 300 303 304 307 313 311 310 313 315 313 317 328 334 338 339 338 337 339 342 340 343 344 345 344 343 342 342 342 342 341 340 339 339 339 340 340 338 336 337 336 336 335 333 332 331
312 314 304 302 300 303 305 309 313 311 311 314 313 314 319 331 333 335 339 337 338 339 341 341 337 340 342 343 342 342 342 343 343 341 340 340 340 339 338 339 336 335 336 335 335 334 332 331 330
310 309 305 304 303 302 306 311 311 310 311 312 317 311 321 328 332 335 338 337 338 340 341 341 340 338 335 338 339 340 341 341 341 341 340 339 339 339 337 336 336 333 334 333 333 332 331 330 330
310 310 303 305 304 303 307 309 309 311 310 316 319 309 316 328 332 335 337 336 336 339 340 342 339 340 340 339 333 335 337 337 336 336 334 332 332 332 332 331 334 332 332 331 331 331 330 329 328
309 304 302 303 302 305 307 307 307 308 312 315 318 316 323 333 332 332 332 332 332 333 335 340 339 339 339 338 334 331 332 331 329 329 326 329 333 332 331 329 332 331 330 329 329 328 327 325 324
305 302 302 305 306 304 306 308 306 307 310 310 315 322 328 330 328 327 326 327 328 328 331 336 338 338 338 336 337 337 337 336 333 333 333 332 332 332 331 327 327 328 328 328 327 325 322 324 327
303 301 302 303 304 304 304 304 306 306 307 312 312 319 325 326 326 327 328 328 328 330 331 333 335 337 338 337 337 336 336 335 333 332 332 331 330 332 332 331 330 330 322 327 327 327 327 326 327
300 302 303 303 304 302 302 305 304 306 310 309 315 322 325 325 326 327 327 329 329 329 330 331 334 335 335 336 335 336 334 333 332 331 331 330 329 329 330 329 329 330 329 328 328 328 327 326 325
301 299 302 303 302 302 302 303 305 304 308 307 315 322 324 326 328 329 330 331 331 328 329 331 333 337 333 333 334 336 335 333 333 331 330 330 329 328 328 328 328 327 327 326 327 327 326 326 325
302 301 299 301 302 302 301 301 302 306 308 310 317 320 323 325 326 328 328 329 329 330 329 330 332 335 336 332 332 333 333 333 334 332 332 330 330 330 328 328 328 327 326 325 325 326 325 324 324
300 296 298 299 301 301 302 298 299 305 308 310 314 318 321 324 327 327 328 329 330 331 332 330 331 334 334 334 332 331 331 331 331 333 333 331 331 330 329 329 329 329 327 324 324 323 323 322 322
298 298 292 299 299 300 299 297 303 305 306 308 312 316 320 322 325 327 328 330 332 332 330 334 331 332 333 333 334 332 331 331 332 332 333 333 331 331 330 329 329 330 328 326 325 325 324 323 322
293 293 293 294 299 298 299 299 302 304 304 306 310 314 317 320 323 326 328 330 331 332 333 333 334 332 332 333 333 333 333 331 332 333 331 334 333 332 331 329 328 327 323 322 324 324 324 324 323
288 292 292 294 296 296 297 299 299 300 303 304 307 311 315 317 319 324 328 330 332 333 335 335 335 335 334 333 332 332 332 333 333 333 334 334 334 332 329 327 325 323 321 320 318 319 319 319 321
297 296 293 295 295 296 297 299 302 299 299 303 304 305 312 315 320 323 325 328 330 332 333 334 334 335 334 332 330 330 329 331 332 334 335 334 334 332 329 328 326 323 321 321 319 318 317 316 315
295 292 293 293 293 294 295 296 301 299 299 301 305 305 305 309 314 317 322 325 326 328 331 333 333 334 334 334 333 333 332 333 334 335 334 334 334 332 329 329 327 324 323 321 319 316 316 316 314
293 294 293 293 292 293 292 293 296 299 299 299 299 302 304 306 307 310 315 321 326 327 329 330 331 332 334 334 335 334 334 333 332 333 332 333 334 333 332 330 328 325 324 322 322 319 317 317 314
289 293 293 291 292 289 292 288 295 299 297 297 301 302 302 304 304 307 308 312 318 324 329 330 331 332 333 334 333 331 329 328 330 332 333 333 334 333 333 332 331 329 327 327 326 324 323 320 318
292 293 293 291 292 289 288 288 293 292 294 298 301 303 304 305 305 305 305 307 309 311 319 326 329 329 331 332 333 331 330 332 333 332 333 333 333 333 332 332 332 330 331 330 329 323 321 320 322
291 291 290 290 289 284 290 288 290 292 294 299 302 303 305 305 303 301 302 303 303 304 305 309 315 322 328 330 331 330 330 330 330 330 329 330 331 331 331 328 327 328 328 326 324 324 322 320 323
292 291 284 283 282 282 284 283 290 295 296 298 300 300 299 300 300 299 300 301 302 304 306 309 314 316 322 324 327 329 330 330 329 328 328 329 328 327 328 329 327 327 329 328 325 322 320 319 319
290 292 285 279 279 283 282 283 290 295 296 296 296 297 299 300 300 300 302 304 305 306 308 309 315 317 319 321 322 324 324 326 327 327 327 326 326 327 328 329 329 329 329 328 327 323 324 319 318
289 287 291 282 277 282 285 287 291 295 293 293 293 294 296 300 300 301 303 306 307 308 309 309 310 310 311 312 312 311 310 309 309 312 314 324 327 327 328 327 324 325 328 326 325 320 319 318 316
290 292 284 285 280 278 282 283 288 291 292 292 293 294 296 299 300 301 303 304 305 307 308 309 310 310 310 311 312 312 313 313 313 313 310 312 320 320 322 323 324 322 323 322 321 315 314 312 309
288 287 287 288 286 283 280 284 291 290 291 292 294 295 297 299 300 301 302 303 304 305 307 308 308 308 308 309 311 312 312 313 313 313 312 313 313 313 315 316 315 311 310 312 311 308 307 304 301
292 290 289 285 280 282 282 286 289 291 292 292 293 293 297 300 301 301 301 302 302 303 304 305 306 306 307 308 309 310 310 310 309 308 306 307 307 305 304 303 304 302 302 303 303 301 301 299 296
Wind_Speed
3 3 3 4 4 2 5 5 0 8 7 2 6 3 1 5 3 6 9 6 14 11 12 11 9 10 9 13 12 11 12 12 12 13 13 14 15 16 16 16 17 18 18 17 17 17 17 17 16
4 1 2 1 3 4 5 4 6 6 4 7 5 4 3 5 4 9 12 10 13 11 10 11 9 9 7 12 11 13 12 11 11 10 12 13 15 15 16 17 15 17 16 16 16 16 16 16 15
0 3 3 1 1 2 4 6 9 6 7 5 4 2 2 4 5 12 11 16 14 11 11 12 11 10 15 12 10 10 12 12 13 11 12 14 15 14 15 16 17 15 15 15 15 15 15 15 15
1 2 3 3 1 2 3 7 7 12 2 3 1 5 4 4 11 4 15 17 14 13 12 12 10 13 13 12 11 10 10 12 13 13 12 11 13 13 14 18 17 15 13 14 14 14 15 15 15
2 1 2 1 2 1 2 2 11 12 6 5 3 5 5 4 5 11 15 14 14 13 12 12 11 11 11 11 10 8 8 9 11 12 12 12 12 12 14 16 16 13 11 13 13 13 14 14 14
3 2 4 6 3 1 2 5 10 8 5 6 4 7 5 5 9 12 14 13 13 13 12 12 10 10 10 10 10 7 7 10 10 12 13 13 12 12 10 15 15 12 12 11 12 12 13 13 13
4 5 6 4 2 3 2 8 12 9 8 6 6 5 5 8 8 11 13 13 12 12 12 11 11 10 9 9 9 8 10 11 10 10 11 11 12 11 10 11 13 10 11 10 10 11 12 13 13
3 3 7 5 7 3 5 10 4 9 6 4 3 5 7 13 12 12 11 12 12 10 10 11 11 11 10 10 7 8 8 9 9 8 9 9 10 9 9 9 10 9 9 10 10 10 11 12 11
2 5 7 7 6 3 8 9 4 1 7 3 6 0 3 17 15 13 12 11 10 8 9 10 11 10 9 9 8 7 8 8 9 9 7 5 6 7 6 9 9 9 8 9 10 10 9 8 9
5 6 9 5 5 3 7 8 9 7 7 6 7 5 10 16 16 16 15 13 13 12 11 9 11 10 10 7 9 8 7 5 5 6 6 4 4 5 6 7 8 8 8 9 8 7 4 2 3
5 6 6 5 4 3 8 8 6 6 9 12 14 14 15 17 17 17 15 14 15 13 10 10 9 10 10 7 6 4 4 4 4 6 5 4 3 4 3 4 4 3 1 2 2 2 3 4 3
5 4 5 5 6 5 5 6 7 12 4 4 8 16 18 19 19 18 16 15 14 14 13 11 11 9 10 7 6 6 5 5 5 5 5 5 4 4 3 3 3 2 1 1 1 2 2 2 2
5 3 5 5 5 3 5 8 7 11 6 1 8 15 18 18 18 16 15 13 13 14 14 13 12 11 9 9 7 7 6 6 6 6 6 5 4 4 4 3 3 3 3 2 2 2 1 1 2
7 6 3 5 5 4 5 4 6 7 11 7 11 15 15 18 19 16 16 16 15 14 13 13 13 13 12 9 10 7 6 6 6 6 6 7 5 4 4 4 3 3 3 2 2 2 2 3 3
6 6 3 6 7 5 5 4 13 6 12 11 12 12 11 13 15 17 16 16 15 13 13 14 14 14 13 12 10 8 7 6 7 6 8 8 7 6 6 4 4 3 3 4 3 3 3 3 3
9 6 6 8 8 3 6 12 15 12 14 14 11 10 12 14 16 15 14 16 15 14 14 14 12 14 14 12 10 8 8 7 7 7 7 9 9 8 7 5 5 4 4 4 3 3 3 3 4
4 11 12 5 8 4 10 9 2 8 12 13 13 12 12 12 13 15 16 16 15 15 14 14 15 15 15 13 10 10 10 8 7 7 7 10 11 11 8 6 4 5 3 3 3 3 4 4 4
11 10 8 12 8 7 11 13 2 7 9 11 11 10 11 13 18 17 17 15 15 16 15 14 13 15 14 10 10 8 8 8 8 8 9 12 10 11 8 6 6 6 4 4 4 5 3 3 4
16 12 11 10 5 8 14 13 13 5 7 11 12 11 12 15 13 12 14 16 16 16 16 16 15 15 12 10 9 8 9 9 9 10 12 12 11 11 10 7 6 6 6 6 6 4 6 5 4
13 13 11 3 4 6 6 15 14 9 7 12 13 12 15 13 14 13 14 15 17 17 17 17 17 16 14 11 10 8 10 10 10 9 11 12 12 11 9 9 7 8 6 7 8 7 3 3 5
12 17 12 5 5 2 1 13 14 9 12 9 10 10 11 16 17 15 15 17 16 17 18 17 18 17 17 17 10 9 7 7 7 9 9 12 13 12 12 11 9 9 8 7 9 10 10 6 4
11 6 8 9 9 8 5 7 15 21 13 9 15 15 16 15 14 12 15 17 18 17 15 16 17 17 16 17 14 15 12 12 11 10 10 10 13 12 12 13 12 11 8 10 10 9 11 9 8
5 10 8 3 7 3 6 7 9 2 13 20 20 16 17 17 15 15 14 11 12 11 13 13 14 14 15 15 16 12 13 10 9 8 10 10 9 11 12 12 10 11 9 10 11 9 11 8 8
15 12 7 3 2 9 14 10 8 9 18 20 18 20 21 16 10 7 5 7 9 7 8 9 12 13 13 14 15 15 14 13 9 9 8 7 7 7 9 7 8 9 8 9 8 9 9 8 9
7 17 6 6 7 7 2 7 11 10 12 14 11 10 9 6 6 6 8 7 7 8 7 5 7 10 10 11 12 14 14 14 14 11 8 9 6 5 9 11 9 9 11 10 7 7 7 7 7
16 18 6 8 6 4 2 9 5 12 8 7 7 3 5 4 4 5 5 6 7 7 7 9 10 9 8 8 7 4 3 3 5 6 6 5 5 6 8 7 8 9 9 8 7 5 7 5 5
13 13 5 8 2 2 5 4 12 7 7 7 6 8 8 5 5 7 8 8 9 8 7 7 9 9 7 6 4 4 3 4 4 5 3 3 5 6 6 5 4 5 6 6 7 4 4 5 4
11 12 7 2 6 5 4 5 8 4 4 1 5 11 9 6 7 7 7 7 6 7 7 7 7 8 8 6 5 4 4 3 3 4 5 7 4 2 4 4 4 3 4 3 5 2 1 3 1
8 12 2 5 3 4 3 4 4 3 3 4 4 7 11 11 10 9 7 6 5 5 5 6 6 7 7 6 6 6 5 4 4 3 3 3 1 2 2 2 2 1 3 1 4 4 4 5 5
12 13 15 8 6 0 2 3 3 5 7 7 8 6 8 9 9 9 8 8 6 6 6 6 6 6 5 6 6 5 4 4 4 4 4 3 4 4 3 4 5 4 3 4 5 6 6 7 7
Wind_Direction
307 324 268 250 222 252 127 140 67 144 168 130 133 231 69 20 349 65 138 121 138 133 125 121 104 93 101 112 104 97 94 98 94 98 106 108 106 98 91 83 81 81 79 75 72 70 68 66 65
331 313 235 344 254 201 135 139 178 139 96 134 133 152 147 82 63 119 141 149 140 136 130 125 110 106 125 113 111 105 96 96 94 90 104 108 105 99 93 86 84 90 83 79 75 73 72 69 67
116 2 297 352 244 220 140 181 143 117 131 162 146 328 73 88 109 141 120 148 142 140 131 126 123 110 114 114 105 103 106 101 93 78 66 69 75 102 100 88 78 75 82 81 76 75 73 69 65
355 173 136 268 212 66 39 158 146 144 169 198 197 120 114 25 144 134 145 147 146 143 137 133 123 118 112 108 113 108 107 108 104 105 99 81 67 68 79 87 80 77 77 79 77 75 71 65 59
52 222 207 241 178 132 214 178 167 158 151 158 196 132 102 101 112 136 151 150 148 147 138 143 129 126 120 113 109 110 124 114 119 117 109 107 92 69 69 84 83 78 84 77 80 75 68 63 61
147 246 197 225 206 169 204 183 178 169 150 137 186 140 114 115 134 158 154 153 156 148 150 139 134 131 128 122 114 98 76 106 115 98 98 99 109 97 87 92 92 80 79 80 81 77 72 65 67
200 198 196 199 215 235 194 166 189 178 158 165 136 152 112 173 152 164 162 151 161 151 155 148 145 139 127 125 121 107 87 84 83 85 84 82 74 83 69 78 87 91 79 75 76 78 74 67 70
137 223 168 202 215 218 155 169 191 198 156 103 173 181 160 164 156 165 161 160 158 154 159 161 152 158 151 143 120 113 102 96 91 84 86 88 88 86 79 93 82 88 81 73 63 71 71 68 66
164 200 207 190 194 160 152 188 159 104 138 191 161 82 78 139 149 158 163 160 165 168 171 171 165 161 157 150 134 123 111 100 107 108 92 139 108 107 119 61 87 83 78 72 66 64 69 81 74
194 210 199 177 195 179 172 208 163 182 164 189 168 131 143 149 161 168 174 176 178 178 181 181 175 168 160 155 156 152 143 155 142 140 135 111 109 86 91 85 78 75 73 69 66 63 84 281 39
167 204 165 194 194 186 173 192 180 190 201 201 196 167 163 165 175 181 188 188 186 182 186 185 181 177 174 160 169 163 161 156 160 154 145 128 125 143 134 132 146 139 146 89 81 79 48 41 13
187 196 177 143 179 158 196 150 195 215 217 331 195 168 163 178 185 185 190 193 191 186 186 190 188 183 184 176 181 175 172 169 168 170 164 163 162 159 155 149 136 142 50 104 64 52 33 35 29
212 158 183 146 167 187 146 211 208 219 226 34 154 165 177 185 191 191 191 199 196 197 190 191 195 186 188 191 190 183 194 185 179 178 181 189 179 174 174 168 175 176 176 204 203 200 239 274 301
179 169 165 184 186 170 209 205 209 220 175 158 172 184 188 193 193 191 191 201 197 201 197 192 197 199 187 194 199 200 194 203 196 193 192 199 193 185 188 189 194 185 202 181 210 230 262 288 298
147 137 141 203 186 199 188 197 225 177 175 177 190 193 197 200 196 200 197 206 202 208 197 198 197 196 199 195 197 202 202 206 211 219 202 201 203 198 201 198 206 210 189 204 204 208 225 249 252
156 169 180 178 176 177 199 237 223 180 179 192 194 196 198 204 205 205 201 203 204 206 208 204 197 199 201 200 198 195 204 207 213 214 224 210 211 211 205 207 216 202 197 217 228 232 253 263 270
190 185 204 179 200 156 205 240 113 177 195 199 199 204 204 203 210 212 206 203 203 204 206 204 201 200 202 206 204 205 204 208 211 216 209 218 216 214 219 215 215 185 198 212 231 236 258 274 273
154 183 198 203 178 210 204 241 191 193 206 211 205 209 211 211 216 209 208 206 203 205 210 203 203 205 201 203 206 207 211 219 219 217 215 216 209 213 210 218 211 189 192 204 200 212 216 259 283
174 183 186 198 161 198 220 229 230 185 220 210 203 208 217 225 227 216 206 208 207 209 207 209 206 205 198 200 201 210 212 218 221 222 221 220 216 202 205 214 207 189 196 207 207 202 220 232 212
172 173 188 130 137 207 235 243 244 214 230 222 223 205 218 222 222 211 209 207 210 212 208 210 211 206 203 200 203 209 206 219 221 220 220 224 219 200 195 206 202 197 200 204 197 196 204 239 185
180 191 183 203 138 161 247 257 235 221 231 230 240 242 233 226 227 215 206 210 212 216 210 212 212 208 207 207 203 210 219 219 217 222 222 219 220 216 214 211 203 196 198 207 208 203 205 227 202
178 197 158 140 175 218 202 256 223 225 215 218 233 226 235 230 230 237 212 211 210 215 214 214 216 213 214 206 202 205 206 214 218 220 224 223 219 221 219 223 220 221 218 227 221 216 218 215 229
165 145 144 151 214 263 179 247 233 200 224 225 225 227 232 234 226 224 221 229 218 211 213 216 220 218 216 215 211 208 218 228 231 225 226 223 226 224 223 225 226 228 226 232 224 209 213 209 230
138 113 81 93 173 249 233 234 220 206 222 233 223 222 229 235 242 228 212 209 217 190 197 213 221 223 222 216 219 218 222 228 229 228 230 226 228 231 230 219 217 221 223 229 218 220 219 218 238
173 160 154 194 207 241 113 226 254 239 233 237 246 228 219 210 225 208 202 193 192 196 182 184 209 208 206 219 220 226 234 237 238 236 230 238 224 222 237 229 227 230 235 235 221 211 211 215 222
179 184 178 178 193 179 113 233 223 247 281 229 218 167 163 175 177 180 176 167 165 170 163 159 172 174 181 195 212 225 265 247 241 238 228 226 226 233 235 237 237 241 238 242 232 221 230 208 225
178 208 129 107 68 232 200 253 269 241 238 225 217 221 217 189 177 165 160 157 152 141 140 150 147 140 146 155 158 155 178 218 245 263 290 246 226 248 259 235 214 243 244 247 230 212 218 209 215
196 142 180 194 158 228 208 262 237 270 209 202 222 215 210 184 166 163 159 148 137 138 135 137 139 137 128 135 142 156 164 184 225 256 245 239 234 268 246 250 252 278 258 240 216 156 144 174 151
156 189 175 141 167 205 202 233 211 227 263 260 256 212 197 181 174 161 151 145 135 135 141 126 131 135 128 143 152 159 157 158 158 173 185 206 132 257 254 271 73 74 64 126 119 108 111 107 86
206 196 192 191 178 183 11 262 147 238 256 243 244 216 182 170 167 157 155 160 160 154 147 138 135 134 136 149 161 150 122 108 110 89 73 80 109 86 92 87 100 95 91 75 102 107 103 107 102